owner,sensor,date,latitude,longitude,vertical_datum,wind_speed,wind_to_direction,wind_speed_of_gust,qcFlag 
LOOP,urn:ioos:station:wmo:lopl1:1,2019-11-01T00:50:00Z,28.8850,-90.0250,10.0,11.8,10.0,16.5,'11111222,11111222,11111222' 
LOOP,urn:ioos:station:wmo:lopl1:1,2019-11-01T01:50:00Z,28.8850,-90.0250,10.0,14.9,20.0,20.1,'11111222,11111222,11111222' 
LOOP,urn:ioos:station:wmo:lopl1:1,2019-11-01T02:50:00Z,28.8850,-90.0250,10.0,14.4,20.0,18.5,'11111222,11111222,11111222' 
LOOP,urn:ioos:station:wmo:lopl1:1,2019-11-01T03:50:00Z,28.8850,-90.0250,10.0,14.4,10.0,19.0,'11111222,11111222,11111222' 
LOOP,urn:ioos:station:wmo:lopl1:1,2019-11-01T04:55:00Z,28.8850,-90.0250,10.0,11.8,20.0,16.5,'11111222,11111222,11111222' 
LOOP,urn:ioos:station:wmo:lopl1:1,2019-11-01T05:55:00Z,28.8850,-90.0250,10.0,14.4,20.0,19.0,'11111222,11111222,11111222' 
LOOP,urn:ioos:station:wmo:lopl1:1,2019-11-01T06:55:00Z,28.8850,-90.0250,10.0,12.9,20.0,17.0,'11111222,11111222,11111222' 
LOOP,urn:ioos:station:wmo:lopl1:1,2019-11-01T07:55:00Z,28.8850,-90.0250,10.0,13.4,20.0,17.5,'11111222,11111222,11111222' 
LOOP,urn:ioos:station:wmo:lopl1:1,2019-11-01T08:55:00Z,28.8850,-90.0250,10.0,12.4,40.0,16.0,'11111222,11111222,11111222' 
LOOP,urn:ioos:station:wmo:lopl1:1,2019-11-01T09:55:00Z,28.8850,-90.0250,10.0,11.3,40.0,14.4,'11111222,11111222,11111222' 
LOOP,urn:ioos:station:wmo:lopl1:1,2019-11-01T10:55:00Z,28.8850,-90.0250,10.0,8.8,30.0,12.4,'11111222,11111222,11111222' 
LOOP,urn:ioos:station:wmo:lopl1:1,2019-11-01T11:55:00Z,28.8850,-90.0250,10.0,9.8,30.0,13.4,'11111222,11111222,11111222' 
LOOP,urn:ioos:station:wmo:lopl1:1,2019-11-01T12:55:00Z,28.8850,-90.0250,10.0,8.8,60.0,12.4,'11111222,11111222,11111222' 
LOOP,urn:ioos:station:wmo:lopl1:1,2019-11-01T13:55:00Z,28.8850,-90.0250,10.0,9.8,30.0,12.9,'11111222,11111222,11111222' 
LOOP,urn:ioos:station:wmo:lopl1:1,2019-11-01T14:55:00Z,28.8850,-90.0250,10.0,8.8,30.0,12.4,'11111222,11111222,11111222' 
LOOP,urn:ioos:station:wmo:lopl1:1,2019-11-01T15:55:00Z,28.8850,-90.0250,10.0,9.3,60.0,11.8,'11111222,11111222,11111222' 
LOOP,urn:ioos:station:wmo:lopl1:1,2019-11-01T16:55:00Z,28.8850,-90.0250,10.0,6.7,40.0,9.3,'11111222,11111222,11111222' 
LOOP,urn:ioos:station:wmo:lopl1:1,2019-11-01T17:55:00Z,28.8850,-90.0250,10.0,6.7,30.0,8.8,'11111222,11111222,11111222' 
LOOP,urn:ioos:station:wmo:lopl1:1,2019-11-01T18:55:00Z,28.8850,-90.0250,10.0,7.7,40.0,9.8,'11111222,11111222,11111222' 
LOOP,urn:ioos:station:wmo:lopl1:1,2019-11-01T19:55:00Z,28.8850,-90.0250,10.0,6.7,30.0,9.8,'11111222,11111222,11111222' 
LOOP,urn:ioos:station:wmo:lopl1:1,2019-11-01T20:55:00Z,28.8850,-90.0250,10.0,7.2,20.0,9.3,'11111222,11111222,11111222' 
LOOP,urn:ioos:station:wmo:lopl1:1,2019-11-01T21:55:00Z,28.8850,-90.0250,10.0,6.7,20.0,9.3,'11111222,11111222,11111222' 
LOOP,urn:ioos:station:wmo:lopl1:1,2019-11-01T22:55:00Z,28.8850,-90.0250,10.0,6.2,20.0,7.7,'11111222,11111222,11111222' 
LOOP,urn:ioos:station:wmo:lopl1:1,2019-11-01T23:55:00Z,28.8850,-90.0250,10.0,6.2,10.0,9.3,'11111222,11111222,11111222' 
LOOP,urn:ioos:station:wmo:lopl1:1,2019-11-02T00:55:00Z,28.8850,-90.0250,10.0,6.2,30.0,8.2,'11111222,11111222,11111222' 
LOOP,urn:ioos:station:wmo:lopl1:1,2019-11-02T01:55:00Z,28.8850,-90.0250,10.0,6.2,20.0,9.3,'11111222,11111222,11111222' 
LOOP,urn:ioos:station:wmo:lopl1:1,2019-11-02T02:55:00Z,28.8850,-90.0250,10.0,6.2,10.0,8.2,'11111222,11111222,11111222' 
LOOP,urn:ioos:station:wmo:lopl1:1,2019-11-02T04:00:00Z,28.8850,-90.0250,10.0,6.7,350.0,9.8,'11111222,11111222,11111222' 
LOOP,urn:ioos:station:wmo:lopl1:1,2019-11-02T05:00:00Z,28.8850,-90.0250,10.0,6.7,10.0,8.2,'11111222,11111222,11111222' 
LOOP,urn:ioos:station:wmo:lopl1:1,2019-11-02T06:00:00Z,28.8850,-90.0250,10.0,7.2,20.0,9.3,'11111222,11111222,11111222' 
LOOP,urn:ioos:station:wmo:lopl1:1,2019-11-02T07:00:00Z,28.8850,-90.0250,10.0,6.7,30.0,8.8,'11111222,11111222,11111222' 
LOOP,urn:ioos:station:wmo:lopl1:1,2019-11-02T08:00:00Z,28.8850,-90.0250,10.0,5.7,20.0,7.7,'11111222,11111222,11111222' 
LOOP,urn:ioos:station:wmo:lopl1:1,2019-11-02T09:00:00Z,28.8850,-90.0250,10.0,6.2,20.0,8.2,'11111222,11111222,11111222' 
LOOP,urn:ioos:station:wmo:lopl1:1,2019-11-02T10:00:00Z,28.8850,-90.0250,10.0,6.7,10.0,10.8,'11111222,11111222,11111222' 
LOOP,urn:ioos:station:wmo:lopl1:1,2019-11-02T11:00:00Z,28.8850,-90.0250,10.0,8.2,10.0,10.3,'11111222,11111222,11111222' 
LOOP,urn:ioos:station:wmo:lopl1:1,2019-11-02T12:00:00Z,28.8850,-90.0250,10.0,9.3,20.0,11.8,'11111222,11111222,11111222' 
LOOP,urn:ioos:station:wmo:lopl1:1,2019-11-02T13:00:00Z,28.8850,-90.0250,10.0,10.3,20.0,12.9,'11111222,11111222,11111222' 
LOOP,urn:ioos:station:wmo:lopl1:1,2019-11-02T14:00:00Z,28.8850,-90.0250,10.0,9.8,20.0,12.4,'11111222,11111222,11111222' 
LOOP,urn:ioos:station:wmo:lopl1:1,2019-11-02T15:00:00Z,28.8850,-90.0250,10.0,9.8,20.0,12.4,'11111222,11111222,11111222' 
LOOP,urn:ioos:station:wmo:lopl1:1,2019-11-02T16:00:00Z,28.8850,-90.0250,10.0,9.3,10.0,11.3,'11111222,11111222,11111222' 
LOOP,urn:ioos:station:wmo:lopl1:1,2019-11-02T17:00:00Z,28.8850,-90.0250,10.0,7.7,20.0,10.3,'11111222,11111222,11111222' 
LOOP,urn:ioos:station:wmo:lopl1:1,2019-11-02T18:00:00Z,28.8850,-90.0250,10.0,9.3,20.0,12.4,'11111222,11111222,11111222' 
LOOP,urn:ioos:station:wmo:lopl1:1,2019-11-02T19:00:00Z,28.8850,-90.0250,10.0,10.3,20.0,13.4,'11111222,11111222,11111222' 
LOOP,urn:ioos:station:wmo:lopl1:1,2019-11-02T20:00:00Z,28.8850,-90.0250,10.0,9.3,10.0,12.4,'11111222,11111222,11111222' 
LOOP,urn:ioos:station:wmo:lopl1:1,2019-11-02T21:00:00Z,28.8850,-90.0250,10.0,8.8,20.0,11.8,'11111222,11111222,11111222' 
LOOP,urn:ioos:station:wmo:lopl1:1,2019-11-02T22:00:00Z,28.8850,-90.0250,10.0,7.7,30.0,10.3,'11111222,11111222,11111222' 
LOOP,urn:ioos:station:wmo:lopl1:1,2019-11-02T23:00:00Z,28.8850,-90.0250,10.0,7.7,20.0,11.3,'11111222,11111222,11111222' 
LOOP,urn:ioos:station:wmo:lopl1:1,2019-11-03T00:00:00Z,28.8850,-90.0250,10.0,9.3,20.0,11.3,'11111222,11111222,11111222' 
LOOP,urn:ioos:station:wmo:lopl1:1,2019-11-03T01:00:00Z,28.8850,-90.0250,10.0,9.8,10.0,13.4,'11111222,11111222,11111222' 
LOOP,urn:ioos:station:wmo:lopl1:1,2019-11-03T02:00:00Z,28.8850,-90.0250,10.0,10.3,20.0,13.4,'11111222,11111222,11111222' 
LOOP,urn:ioos:station:wmo:lopl1:1,2019-11-03T03:00:00Z,28.8850,-90.0250,10.0,10.3,20.0,12.9,'11111222,11111222,11111222' 
LOOP,urn:ioos:station:wmo:lopl1:1,2019-11-03T04:00:00Z,28.8850,-90.0250,10.0,10.8,20.0,13.9,'11111222,11111222,11111222' 
LOOP,urn:ioos:station:wmo:lopl1:1,2019-11-03T05:00:00Z,28.8850,-90.0250,10.0,9.8,20.0,12.9,'11111222,11111222,11111222' 
LOOP,urn:ioos:station:wmo:lopl1:1,2019-11-03T06:00:00Z,28.8850,-90.0250,10.0,11.3,30.0,14.4,'11111222,11111222,11111222' 
LOOP,urn:ioos:station:wmo:lopl1:1,2019-11-03T07:05:00Z,28.8850,-90.0250,10.0,11.3,20.0,13.4,'11111222,11111222,11111222' 
LOOP,urn:ioos:station:wmo:lopl1:1,2019-11-03T08:05:00Z,28.8850,-90.0250,10.0,12.4,30.0,15.4,'11111222,11111222,11111222' 
LOOP,urn:ioos:station:wmo:lopl1:1,2019-11-03T09:05:00Z,28.8850,-90.0250,10.0,12.4,30.0,14.4,'11111222,11111222,11111222' 
LOOP,urn:ioos:station:wmo:lopl1:1,2019-11-03T10:05:00Z,28.8850,-90.0250,10.0,10.8,30.0,13.4,'11111222,11111222,11111222' 
LOOP,urn:ioos:station:wmo:lopl1:1,2019-11-03T11:05:00Z,28.8850,-90.0250,10.0,10.8,30.0,13.4,'11111222,11111222,11111222' 
LOOP,urn:ioos:station:wmo:lopl1:1,2019-11-03T12:05:00Z,28.8850,-90.0250,10.0,10.3,40.0,13.9,'11111222,11111222,11111222' 
LOOP,urn:ioos:station:wmo:lopl1:1,2019-11-03T13:05:00Z,28.8850,-90.0250,10.0,10.3,40.0,12.9,'11111222,11111222,11111222' 
LOOP,urn:ioos:station:wmo:lopl1:1,2019-11-03T14:05:00Z,28.8850,-90.0250,10.0,10.3,30.0,13.9,'11111222,11111222,11111222' 
LOOP,urn:ioos:station:wmo:lopl1:1,2019-11-03T15:05:00Z,28.8850,-90.0250,10.0,9.8,40.0,12.4,'11111222,11111222,11111222' 
LOOP,urn:ioos:station:wmo:lopl1:1,2019-11-03T16:05:00Z,28.8850,-90.0250,10.0,8.2,60.0,11.8,'11111222,11111222,11111222' 
LOOP,urn:ioos:station:wmo:lopl1:1,2019-11-03T17:05:00Z,28.8850,-90.0250,10.0,7.7,40.0,10.3,'11111222,11111222,11111222' 
LOOP,urn:ioos:station:wmo:lopl1:1,2019-11-03T18:05:00Z,28.8850,-90.0250,10.0,7.7,40.0,10.3,'11111222,11111222,11111222' 
LOOP,urn:ioos:station:wmo:lopl1:1,2019-11-03T19:05:00Z,28.8850,-90.0250,10.0,7.2,60.0,9.3,'11111222,11111222,11111222' 
LOOP,urn:ioos:station:wmo:lopl1:1,2019-11-03T20:05:00Z,28.8850,-90.0250,10.0,7.2,50.0,10.3,'11111222,11111222,11111222' 
LOOP,urn:ioos:station:wmo:lopl1:1,2019-11-03T21:05:00Z,28.8850,-90.0250,10.0,6.7,40.0,8.8,'11111222,11111222,11111222' 
LOOP,urn:ioos:station:wmo:lopl1:1,2019-11-03T22:05:00Z,28.8850,-90.0250,10.0,6.2,70.0,8.8,'11111222,11111222,11111222' 
LOOP,urn:ioos:station:wmo:lopl1:1,2019-11-03T23:05:00Z,28.8850,-90.0250,10.0,6.7,40.0,9.8,'11111222,11111222,11111222' 
LOOP,urn:ioos:station:wmo:lopl1:1,2019-11-04T00:05:00Z,28.8850,-90.0250,10.0,6.2,50.0,8.2,'11111222,11111222,11111222' 
LOOP,urn:ioos:station:wmo:lopl1:1,2019-11-04T01:05:00Z,28.8850,-90.0250,10.0,6.2,70.0,8.8,'11111222,11111222,11111222' 
LOOP,urn:ioos:station:wmo:lopl1:1,2019-11-04T02:05:00Z,28.8850,-90.0250,10.0,5.7,70.0,7.7,'11111222,11111222,11111222' 
LOOP,urn:ioos:station:wmo:lopl1:1,2019-11-04T03:05:00Z,28.8850,-90.0250,10.0,5.7,70.0,7.2,'11111222,11111222,11111222' 
LOOP,urn:ioos:station:wmo:lopl1:1,2019-11-04T04:05:00Z,28.8850,-90.0250,10.0,5.1,40.0,6.7,'11111222,11111222,11111222' 
LOOP,urn:ioos:station:wmo:lopl1:1,2019-11-04T05:05:00Z,28.8850,-90.0250,10.0,5.7,80.0,6.7,'11111222,11111222,11111222' 
LOOP,urn:ioos:station:wmo:lopl1:1,2019-11-04T16:10:00Z,28.8850,-90.0250,10.0,6.2,20.0,8.2,'11111222,11111222,11111222' 
LOOP,urn:ioos:station:wmo:lopl1:1,2019-11-04T17:10:00Z,28.8850,-90.0250,10.0,6.2,50.0,7.2,'11111222,11111222,11111222' 
LOOP,urn:ioos:station:wmo:lopl1:1,2019-11-04T18:10:00Z,28.8850,-90.0250,10.0,6.7,30.0,7.7,'11111222,11111222,11111222' 
LOOP,urn:ioos:station:wmo:lopl1:1,2019-11-04T19:10:00Z,28.8850,-90.0250,10.0,6.7,40.0,7.7,'11111222,11111222,11111222' 
LOOP,urn:ioos:station:wmo:lopl1:1,2019-11-04T20:10:00Z,28.8850,-90.0250,10.0,5.1,60.0,7.7,'11111222,11111222,11111222' 
LOOP,urn:ioos:station:wmo:lopl1:1,2019-11-04T21:10:00Z,28.8850,-90.0250,10.0,6.2,30.0,7.7,'11111222,11111222,11111222' 
LOOP,urn:ioos:station:wmo:lopl1:1,2019-11-04T22:10:00Z,28.8850,-90.0250,10.0,5.7,40.0,7.2,'11111222,11111222,11111222' 
LOOP,urn:ioos:station:wmo:lopl1:1,2019-11-04T23:10:00Z,28.8850,-90.0250,10.0,4.6,50.0,6.2,'11111222,11111222,11111222' 
LOOP,urn:ioos:station:wmo:lopl1:1,2019-11-05T00:10:00Z,28.8850,-90.0250,10.0,5.7,80.0,6.7,'11111222,11111222,11111222' 
LOOP,urn:ioos:station:wmo:lopl1:1,2019-11-05T01:10:00Z,28.8850,-90.0250,10.0,5.7,60.0,6.7,'11111222,11111222,11111222' 
LOOP,urn:ioos:station:wmo:lopl1:1,2019-11-05T02:10:00Z,28.8850,-90.0250,10.0,5.1,70.0,6.7,'11111222,11111222,11111222' 
LOOP,urn:ioos:station:wmo:lopl1:1,2019-11-05T03:10:00Z,28.8850,-90.0250,10.0,4.6,40.0,6.2,'11111222,11111222,11111222' 
LOOP,urn:ioos:station:wmo:lopl1:1,2019-11-05T04:10:00Z,28.8850,-90.0250,10.0,5.7,40.0,7.2,'11111222,11111222,11111222' 
LOOP,urn:ioos:station:wmo:lopl1:1,2019-11-05T05:15:00Z,28.8850,-90.0250,10.0,6.2,40.0,7.7,'11111222,11111222,11111222' 
LOOP,urn:ioos:station:wmo:lopl1:1,2019-11-05T06:15:00Z,28.8850,-90.0250,10.0,6.2,40.0,7.2,'11111222,11111222,11111222' 
LOOP,urn:ioos:station:wmo:lopl1:1,2019-11-05T07:15:00Z,28.8850,-90.0250,10.0,5.1,50.0,6.7,'11111222,11111222,11111222' 
LOOP,urn:ioos:station:wmo:lopl1:1,2019-11-05T08:15:00Z,28.8850,-90.0250,10.0,6.7,40.0,7.7,'11111222,11111222,11111222' 
LOOP,urn:ioos:station:wmo:lopl1:1,2019-11-05T09:15:00Z,28.8850,-90.0250,10.0,7.7,30.0,8.8,'11111222,11111222,11111222' 
LOOP,urn:ioos:station:wmo:lopl1:1,2019-11-05T10:15:00Z,28.8850,-90.0250,10.0,7.2,20.0,8.8,'11111222,11111222,11111222' 
LOOP,urn:ioos:station:wmo:lopl1:1,2019-11-05T11:15:00Z,28.8850,-90.0250,10.0,7.2,30.0,8.2,'11111222,11111222,11111222' 
LOOP,urn:ioos:station:wmo:lopl1:1,2019-11-05T12:15:00Z,28.8850,-90.0250,10.0,6.7,20.0,8.8,'11111222,11111222,11111222' 
LOOP,urn:ioos:station:wmo:lopl1:1,2019-11-05T13:15:00Z,28.8850,-90.0250,10.0,6.2,30.0,7.2,'11111222,11111222,11111222' 
LOOP,urn:ioos:station:wmo:lopl1:1,2019-11-05T14:15:00Z,28.8850,-90.0250,10.0,4.6,50.0,6.2,'11111222,11111222,11111222' 
LOOP,urn:ioos:station:wmo:lopl1:1,2019-11-05T15:15:00Z,28.8850,-90.0250,10.0,5.7,50.0,7.2,'11111222,11111222,11111222' 
LOOP,urn:ioos:station:wmo:lopl1:1,2019-11-05T16:15:00Z,28.8850,-90.0250,10.0,6.2,40.0,7.7,'11111222,11111222,11111222' 
LOOP,urn:ioos:station:wmo:lopl1:1,2019-11-05T17:15:00Z,28.8850,-90.0250,10.0,7.7,30.0,8.8,'11111222,11111222,11111222' 
LOOP,urn:ioos:station:wmo:lopl1:1,2019-11-05T18:15:00Z,28.8850,-90.0250,10.0,7.2,10.0,9.3,'11111222,11111222,11111222' 
LOOP,urn:ioos:station:wmo:lopl1:1,2019-11-05T19:15:00Z,28.8850,-90.0250,10.0,6.7,40.0,8.2,'11111222,11111222,11111222' 
LOOP,urn:ioos:station:wmo:lopl1:1,2019-11-05T20:15:00Z,28.8850,-90.0250,10.0,7.7,30.0,9.3,'11111222,11111222,11111222' 
LOOP,urn:ioos:station:wmo:lopl1:1,2019-11-05T21:15:00Z,28.8850,-90.0250,10.0,7.2,30.0,8.2,'11111222,11111222,11111222' 
LOOP,urn:ioos:station:wmo:lopl1:1,2019-11-05T22:15:00Z,28.8850,-90.0250,10.0,7.7,40.0,10.3,'11111222,11111222,11111222' 
LOOP,urn:ioos:station:wmo:lopl1:1,2019-11-05T23:15:00Z,28.8850,-90.0250,10.0,9.3,40.0,10.8,'11111222,11111222,11111222' 
LOOP,urn:ioos:station:wmo:lopl1:1,2019-11-06T00:15:00Z,28.8850,-90.0250,10.0,7.7,30.0,9.3,'11111222,11111222,11111222' 
LOOP,urn:ioos:station:wmo:lopl1:1,2019-11-06T01:15:00Z,28.8850,-90.0250,10.0,6.2,20.0,7.2,'11111222,11111222,11111222' 
LOOP,urn:ioos:station:wmo:lopl1:1,2019-11-06T02:15:00Z,28.8850,-90.0250,10.0,7.7,30.0,9.3,'11111222,11111222,11111222' 
LOOP,urn:ioos:station:wmo:lopl1:1,2019-11-06T03:15:00Z,28.8850,-90.0250,10.0,7.7,30.0,9.8,'11111222,11111222,11111222' 
LOOP,urn:ioos:station:wmo:lopl1:1,2019-11-06T04:15:00Z,28.8850,-90.0250,10.0,9.3,20.0,11.3,'11111222,11111222,11111222' 
LOOP,urn:ioos:station:wmo:lopl1:1,2019-11-06T05:15:00Z,28.8850,-90.0250,10.0,10.8,30.0,12.9,'11111222,11111222,11111222' 
LOOP,urn:ioos:station:wmo:lopl1:1,2019-11-06T06:20:00Z,28.8850,-90.0250,10.0,8.2,50.0,11.3,'11111222,11111222,11111222' 
LOOP,urn:ioos:station:wmo:lopl1:1,2019-11-06T07:20:00Z,28.8850,-90.0250,10.0,8.8,40.0,11.3,'11111222,11111222,11111222' 
LOOP,urn:ioos:station:wmo:lopl1:1,2019-11-06T08:20:00Z,28.8850,-90.0250,10.0,9.8,40.0,12.4,'11111222,11111222,11111222' 
LOOP,urn:ioos:station:wmo:lopl1:1,2019-11-06T09:20:00Z,28.8850,-90.0250,10.0,10.3,40.0,12.4,'11111222,11111222,11111222' 
LOOP,urn:ioos:station:wmo:lopl1:1,2019-11-06T10:20:00Z,28.8850,-90.0250,10.0,9.8,30.0,11.3,'11111222,11111222,11111222' 
LOOP,urn:ioos:station:wmo:lopl1:1,2019-11-06T11:20:00Z,28.8850,-90.0250,10.0,9.8,30.0,11.3,'11111222,11111222,11111222' 
LOOP,urn:ioos:station:wmo:lopl1:1,2019-11-06T12:20:00Z,28.8850,-90.0250,10.0,9.8,40.0,11.8,'11111222,11111222,11111222' 
LOOP,urn:ioos:station:wmo:lopl1:1,2019-11-06T13:20:00Z,28.8850,-90.0250,10.0,7.7,50.0,10.3,'11111222,11111222,11111222' 
LOOP,urn:ioos:station:wmo:lopl1:1,2019-11-06T14:20:00Z,28.8850,-90.0250,10.0,8.8,50.0,10.3,'11111222,11111222,11111222' 
LOOP,urn:ioos:station:wmo:lopl1:1,2019-11-06T15:20:00Z,28.8850,-90.0250,10.0,7.2,40.0,9.3,'11111222,11111222,11111222' 
LOOP,urn:ioos:station:wmo:lopl1:1,2019-11-06T16:20:00Z,28.8850,-90.0250,10.0,7.2,40.0,8.8,'11111222,11111222,11111222' 
LOOP,urn:ioos:station:wmo:lopl1:1,2019-11-06T17:20:00Z,28.8850,-90.0250,10.0,6.7,50.0,8.8,'11111222,11111222,11111222' 
LOOP,urn:ioos:station:wmo:lopl1:1,2019-11-06T18:20:00Z,28.8850,-90.0250,10.0,8.2,30.0,9.8,'11111222,11111222,11111222' 
LOOP,urn:ioos:station:wmo:lopl1:1,2019-11-06T19:20:00Z,28.8850,-90.0250,10.0,6.7,40.0,8.2,'11111222,11111222,11111222' 
LOOP,urn:ioos:station:wmo:lopl1:1,2019-11-06T20:20:00Z,28.8850,-90.0250,10.0,8.8,30.0,10.8,'11111222,11111222,11111222' 
LOOP,urn:ioos:station:wmo:lopl1:1,2019-11-06T21:20:00Z,28.8850,-90.0250,10.0,8.8,40.0,9.8,'11111222,11111222,11111222' 
LOOP,urn:ioos:station:wmo:lopl1:1,2019-11-06T22:20:00Z,28.8850,-90.0250,10.0,7.7,40.0,9.3,'11111222,11111222,11111222' 
LOOP,urn:ioos:station:wmo:lopl1:1,2019-11-06T23:20:00Z,28.8850,-90.0250,10.0,5.7,50.0,7.2,'11111222,11111222,11111222' 
LOOP,urn:ioos:station:wmo:lopl1:1,2019-11-07T00:20:00Z,28.8850,-90.0250,10.0,6.2,50.0,7.2,'11111222,11111222,11111222' 
LOOP,urn:ioos:station:wmo:lopl1:1,2019-11-07T01:20:00Z,28.8850,-90.0250,10.0,6.2,40.0,7.7,'11111222,11111222,11111222' 
LOOP,urn:ioos:station:wmo:lopl1:1,2019-11-07T02:20:00Z,28.8850,-90.0250,10.0,5.1,60.0,7.2,'11111222,11111222,11111222' 
LOOP,urn:ioos:station:wmo:lopl1:1,2019-11-07T03:20:00Z,28.8850,-90.0250,10.0,6.2,70.0,8.2,'11111222,11111222,11111222' 
LOOP,urn:ioos:station:wmo:lopl1:1,2019-11-07T04:20:00Z,28.8850,-90.0250,10.0,4.1,90.0,5.1,'11111222,11111222,11111222' 
LOOP,urn:ioos:station:wmo:lopl1:1,2019-11-07T05:20:00Z,28.8850,-90.0250,10.0,6.2,110.0,6.7,'11111222,11111222,11111222' 
LOOP,urn:ioos:station:wmo:lopl1:1,2019-11-07T06:20:00Z,28.8850,-90.0250,10.0,7.2,100.0,7.7,'11111222,11111222,11111222' 
LOOP,urn:ioos:station:wmo:lopl1:1,2019-11-07T07:25:00Z,28.8850,-90.0250,10.0,7.7,130.0,8.2,'11111222,11111222,11111222' 
LOOP,urn:ioos:station:wmo:lopl1:1,2019-11-07T08:25:00Z,28.8850,-90.0250,10.0,5.1,150.0,5.7,'11111222,11111222,11111222' 
LOOP,urn:ioos:station:wmo:lopl1:1,2019-11-07T09:25:00Z,28.8850,-90.0250,10.0,3.6,150.0,4.1,'11111222,11111222,11111222' 
LOOP,urn:ioos:station:wmo:lopl1:1,2019-11-07T10:25:00Z,28.8850,-90.0250,10.0,3.6,160.0,3.6,'11111222,11111222,11111222' 
LOOP,urn:ioos:station:wmo:lopl1:1,2019-11-07T11:25:00Z,28.8850,-90.0250,10.0,3.1,140.0,3.6,'11111222,11111222,11111222' 
LOOP,urn:ioos:station:wmo:lopl1:1,2019-11-07T12:25:00Z,28.8850,-90.0250,10.0,2.6,120.0,3.1,'11111222,11111222,11111222' 
LOOP,urn:ioos:station:wmo:lopl1:1,2019-11-07T13:25:00Z,28.8850,-90.0250,10.0,2.1,130.0,2.6,'11111222,11111222,11111222' 
LOOP,urn:ioos:station:wmo:lopl1:1,2019-11-07T14:25:00Z,28.8850,-90.0250,10.0,2.6,150.0,2.6,'11111222,11111222,11111222' 
LOOP,urn:ioos:station:wmo:lopl1:1,2019-11-07T15:25:00Z,28.8850,-90.0250,10.0,3.6,170.0,3.6,'11111222,11111222,11111222' 
LOOP,urn:ioos:station:wmo:lopl1:1,2019-11-07T16:25:00Z,28.8850,-90.0250,10.0,2.6,150.0,2.6,'11111222,11111222,11111222' 
LOOP,urn:ioos:station:wmo:lopl1:1,2019-11-07T17:25:00Z,28.8850,-90.0250,10.0,3.1,160.0,3.6,'11111222,11111222,11111222' 
LOOP,urn:ioos:station:wmo:lopl1:1,2019-11-07T18:25:00Z,28.8850,-90.0250,10.0,4.6,170.0,5.1,'11111222,11111222,11111222' 
LOOP,urn:ioos:station:wmo:lopl1:1,2019-11-07T19:25:00Z,28.8850,-90.0250,10.0,2.6,170.0,3.6,'11111222,11111222,11111222' 
LOOP,urn:ioos:station:wmo:lopl1:1,2019-11-07T20:25:00Z,28.8850,-90.0250,10.0,1.5,170.0,2.1,'11111222,11111222,11111222' 
LOOP,urn:ioos:station:wmo:lopl1:1,2019-11-07T21:25:00Z,28.8850,-90.0250,10.0,1.0,170.0,1.5,'11111222,11111222,11111222' 
LOOP,urn:ioos:station:wmo:lopl1:1,2019-11-07T22:25:00Z,28.8850,-90.0250,10.0,2.1,170.0,2.6,'11111222,11111222,11111222' 
LOOP,urn:ioos:station:wmo:lopl1:1,2019-11-07T23:25:00Z,28.8850,-90.0250,10.0,2.1,-9999.0,2.6,'11111222,11111222,11111222' 
LOOP,urn:ioos:station:wmo:lopl1:1,2019-11-08T00:25:00Z,28.8850,-90.0250,10.0,4.1,290.0,5.7,'11111222,11111222,11111222' 
LOOP,urn:ioos:station:wmo:lopl1:1,2019-11-08T01:25:00Z,28.8850,-90.0250,10.0,4.1,340.0,6.7,'11111222,11111222,11111222' 
LOOP,urn:ioos:station:wmo:lopl1:1,2019-11-08T02:25:00Z,28.8850,-90.0250,10.0,2.6,20.0,4.1,'11111222,11111222,11111222' 
LOOP,urn:ioos:station:wmo:lopl1:1,2019-11-08T03:25:00Z,28.8850,-90.0250,10.0,1.0,20.0,2.1,'11111222,11111222,11111222' 
LOOP,urn:ioos:station:wmo:lopl1:1,2019-11-08T04:25:00Z,28.8850,-90.0250,10.0,2.6,360.0,3.6,'11111222,11144222,11111222' 
LOOP,urn:ioos:station:wmo:lopl1:1,2019-11-08T05:25:00Z,28.8850,-90.0250,10.0,2.1,20.0,3.1,'11111222,11111222,11111222' 
LOOP,urn:ioos:station:wmo:lopl1:1,2019-11-08T06:25:00Z,28.8850,-90.0250,10.0,4.6,360.0,6.7,'11111222,11144222,11111222' 
LOOP,urn:ioos:station:wmo:lopl1:1,2019-11-08T07:25:00Z,28.8850,-90.0250,10.0,10.3,20.0,12.4,'11111222,11111222,11111222' 
LOOP,urn:ioos:station:wmo:lopl1:1,2019-11-08T08:25:00Z,28.8850,-90.0250,10.0,11.3,20.0,13.4,'11111222,11111222,11111222' 
LOOP,urn:ioos:station:wmo:lopl1:1,2019-11-08T09:30:00Z,28.8850,-90.0250,10.0,12.4,30.0,14.4,'11111222,11111222,11111222' 
LOOP,urn:ioos:station:wmo:lopl1:1,2019-11-08T10:30:00Z,28.8850,-90.0250,10.0,12.9,20.0,16.5,'11111222,11111222,11111222' 
LOOP,urn:ioos:station:wmo:lopl1:1,2019-11-08T11:30:00Z,28.8850,-90.0250,10.0,12.9,10.0,16.0,'11111222,11111222,11111222' 
LOOP,urn:ioos:station:wmo:lopl1:1,2019-11-08T12:30:00Z,28.8850,-90.0250,10.0,13.4,30.0,15.4,'11111222,11111222,11111222' 
LOOP,urn:ioos:station:wmo:lopl1:1,2019-11-08T13:30:00Z,28.8850,-90.0250,10.0,12.4,20.0,15.4,'11111222,11111222,11111222' 
LOOP,urn:ioos:station:wmo:lopl1:1,2019-11-08T14:30:00Z,28.8850,-90.0250,10.0,10.8,30.0,14.4,'11111222,11111222,11111222' 
LOOP,urn:ioos:station:wmo:lopl1:1,2019-11-08T15:30:00Z,28.8850,-90.0250,10.0,11.8,30.0,13.9,'11111222,11111222,11111222' 
LOOP,urn:ioos:station:wmo:lopl1:1,2019-11-08T16:30:00Z,28.8850,-90.0250,10.0,11.8,30.0,13.9,'11111222,11111222,11111222' 
LOOP,urn:ioos:station:wmo:lopl1:1,2019-11-08T17:30:00Z,28.8850,-90.0250,10.0,10.3,30.0,12.4,'11111222,11111222,11111222' 
LOOP,urn:ioos:station:wmo:lopl1:1,2019-11-08T18:30:00Z,28.8850,-90.0250,10.0,10.3,40.0,13.9,'11111222,11111222,11111222' 
LOOP,urn:ioos:station:wmo:lopl1:1,2019-11-08T19:30:00Z,28.8850,-90.0250,10.0,9.8,30.0,11.3,'11111222,11111222,11111222' 
LOOP,urn:ioos:station:wmo:lopl1:1,2019-11-08T20:30:00Z,28.8850,-90.0250,10.0,9.3,20.0,11.3,'11111222,11111222,11111222' 
LOOP,urn:ioos:station:wmo:lopl1:1,2019-11-08T21:30:00Z,28.8850,-90.0250,10.0,9.8,30.0,11.8,'11111222,11111222,11111222' 
LOOP,urn:ioos:station:wmo:lopl1:1,2019-11-08T22:30:00Z,28.8850,-90.0250,10.0,10.3,30.0,12.4,'11111222,11111222,11111222' 
LOOP,urn:ioos:station:wmo:lopl1:1,2019-11-09T00:30:00Z,28.8850,-90.0250,10.0,10.8,20.0,14.4,'11111222,11111222,11111222' 
LOOP,urn:ioos:station:wmo:lopl1:1,2019-11-09T01:30:00Z,28.8850,-90.0250,10.0,11.3,20.0,13.9,'11111222,11111222,11111222' 
LOOP,urn:ioos:station:wmo:lopl1:1,2019-11-09T02:30:00Z,28.8850,-90.0250,10.0,10.3,20.0,12.9,'11111222,11111222,11111222' 
LOOP,urn:ioos:station:wmo:lopl1:1,2019-11-09T03:30:00Z,28.8850,-90.0250,10.0,11.3,30.0,13.9,'11111222,11111222,11111222' 
LOOP,urn:ioos:station:wmo:lopl1:1,2019-11-09T04:30:00Z,28.8850,-90.0250,10.0,11.3,30.0,13.9,'11111222,11111222,11111222' 
LOOP,urn:ioos:station:wmo:lopl1:1,2019-11-09T05:30:00Z,28.8850,-90.0250,10.0,9.8,30.0,13.4,'11111222,11111222,11111222' 
LOOP,urn:ioos:station:wmo:lopl1:1,2019-11-09T06:30:00Z,28.8850,-90.0250,10.0,9.8,30.0,11.8,'11111222,11111222,11111222' 
LOOP,urn:ioos:station:wmo:lopl1:1,2019-11-09T07:30:00Z,28.8850,-90.0250,10.0,9.8,30.0,11.8,'11111222,11111222,11111222' 
LOOP,urn:ioos:station:wmo:lopl1:1,2019-11-09T08:30:00Z,28.8850,-90.0250,10.0,9.8,20.0,11.8,'11111222,11111222,11111222' 
LOOP,urn:ioos:station:wmo:lopl1:1,2019-11-09T09:36:00Z,28.8850,-90.0250,10.0,8.8,30.0,11.8,'11111222,11111222,11111222' 
LOOP,urn:ioos:station:wmo:lopl1:1,2019-11-09T10:36:00Z,28.8850,-90.0250,10.0,8.8,20.0,11.3,'11111222,11111222,11111222' 
LOOP,urn:ioos:station:wmo:lopl1:1,2019-11-09T11:36:00Z,28.8850,-90.0250,10.0,8.8,30.0,10.8,'11111222,11111222,11111222' 
LOOP,urn:ioos:station:wmo:lopl1:1,2019-11-09T12:36:00Z,28.8850,-90.0250,10.0,7.7,20.0,9.8,'11111222,11111222,11111222' 
LOOP,urn:ioos:station:wmo:lopl1:1,2019-11-09T13:36:00Z,28.8850,-90.0250,10.0,7.7,30.0,10.3,'11111222,11111222,11111222' 
LOOP,urn:ioos:station:wmo:lopl1:1,2019-11-09T14:36:00Z,28.8850,-90.0250,10.0,8.2,20.0,10.3,'11111222,11111222,11111222' 
LOOP,urn:ioos:station:wmo:lopl1:1,2019-11-09T15:36:00Z,28.8850,-90.0250,10.0,6.2,60.0,8.2,'11111222,11111222,11111222' 
LOOP,urn:ioos:station:wmo:lopl1:1,2019-11-09T16:36:00Z,28.8850,-90.0250,10.0,7.2,40.0,9.3,'11111222,11111222,11111222' 